Miscellaneous Local Product
Issued by NWS Hastings, NE

Home | Current Version | Previous Version | Graphics & Text | Print | Product List | Glossary On
Versions: 1 2 3 4 5 6 7 8 9 10 11 12 13 14 15 16 17 18 19 20 21 22 23 24 25 26 27 28 29 30 31 32 33 34 35 36 37 38 39 40 41 42 43 44 45 46 47 48 49 50
000
AXUS43 KGID 012002
MISGRI

GID CWA HOURLY WEATHER ROUNDUP
NATIONAL WEATHER SERVICE HASTINGS NE
300 PM CDT WED OCT 01 2014

NOTE: "FAIR" INDICATES FEW OR NO CLOUDS BELOW 12,000 FEET WITH NO
SIGNIFICANT WEATHER AND/OR OBSTRUCTIONS TO VISIBILITY.

...SOUTH CENTRAL NEBRASKA...

CITY           SKY/WX    TMP DP  RH WIND       PRES   REMARKS
GRAND ISLAND   PTSUNNY   76  51  41 CALM      29.74F
HASTINGS       PTSUNNY   77  51  40 CALM      29.73F
KEARNEY        PTSUNNY   75  55  50 NW3       29.76F
ORD            PTSUNNY   74  49  41 NE8       29.75F
YORK           PTSUNNY   75  61  60 CALM      29.73F
AURORA         PTSUNNY   76  53  44 CALM      29.73F
LEXINGTON      MOSUNNY   75  53  45 CALM      29.76F
HOLDREGE       MOSUNNY   75  49  39 CALM      29.74F
HEBRON         MOSUNNY   78  59  52 CALM      29.71F

...NEBRASKA PANHANDLE...

CITY           SKY/WX    TMP DP  RH WIND       PRES   REMARKS
CHADRON        PTSUNNY   62  47  57 NW9       29.85F
ALLIANCE       MOSUNNY   64  45  49 VRB5      29.83F
SCOTTSBLUFF    MOSUNNY   66  43  43 VRB7      29.84F
SIDNEY         CLOUDY    65  43  44 N8        29.85F

...WESTERN AND NORTH CENTRAL NEBRASKA...

CITY           SKY/WX    TMP DP  RH WIND       PRES   REMARKS
VALENTINE      MOSUNNY   68  46  45 VRB7      29.81F
AINSWORTH      SUNNY     69  48  46 NW8       29.80F
ONEILL         MOSUNNY   73  53  49 N9G16     29.77F
BROKEN BOW     MOSUNNY   76  48  37 CALM      29.76F
IMPERIAL       MOSUNNY   74  44  34 NE8       29.79F
NORTH PLATTE   MOSUNNY   74  44  34 VRB3      29.77F
MCCOOK         SUNNY     77  46  33 CALM      29.76F

...EASTERN NEBRASKA...

CITY           SKY/WX    TMP DP  RH WIND       PRES   REMARKS
NORFOLK        PTSUNNY   77  56  48 MISG      29.72F
SO SIOUX CITY  MOSUNNY   78  58  49 CALM      29.71F
TEKAMAH        PTSUNNY   77  63  61 S8        29.72S
COLUMBUS       PTSUNNY   75  55  50 CALM      29.74F
ALBION         PTSUNNY   75  55  50 N3        29.74F
OMAHA EPPLEY   PTSUNNY   73  62  68 SE6       29.72F
OFFUTT AFB     PTSUNNY   73  68  82 VRB3      29.72F
MILLARD        PTSUNNY   74  65  72 SE5       29.72F
LINCOLN        PTSUNNY   76  63  64 CALM      29.73F
NEBRASKA CITY  PTSUNNY   74  61  63 CALM      29.72F
BEATRICE       PTSUNNY   76  62  60 CALM      29.71F HAZE
FALLS CITY     SUNNY     79  64  60 VRB3      29.70F

...NORTHERN KANSAS...

CITY           SKY/WX    TMP DP  RH WIND       PRES   REMARKS
GOODLAND       SUNNY     75  41  29 CALM      29.80F
HILL CITY      MOSUNNY   78  56  46 VRB3      29.74F
NORTON         CLEAR     79  45  29 E3        29.73F
PHILLIPSBURG   SUNNY     82  55  39 SW5       29.72F
SMITH CENTER   SUNNY     79  57  47 SE3       29.72F
BELOIT         SUNNY     75  64  69 NE5       29.70F
HAYS           MOSUNNY   72  61  68 NE6       29.74F
RUSSELL        MOSUNNY   75  63  66 N5        29.71F
CONCORDIA      MOSUNNY   79  65  62 VRB3      29.71F
SALINA         SUNNY     79  64  60 SE5       29.69F
TOPEKA         PTSUNNY   86  66  51 S9        29.70F



USA.gov is the U.S. government's official web portal to all federal, state and local government web resources and services.